SCP
0 0 0 0 0 0 0 0 0 0 0 0 0 0 0 0 0 0 0 0 0 0 0 0 0 0 0 0 0 0 0 0 0 0 0 0 0 0 0 0 0 0 0
0 0 0 0 0 0 0 0 0 0 0 0 0 0 0 0 0 0 0 0 0 0 0 0 0 0 0 0 0 0 0 0 0 0 0 0 0 0 0 0 0 0 0
0 0 0 0 0 0 0 0 0 0 0 0 0 0 0 0 0 0 0 0 0 0 0 0 0 0 0 0 0 0 0 0 0 0 0 0 0 0 0 0 0 0 0
0 0 0 0 0 0 0 0 0 0 0 0 0 0 0 0 0 0 0 0 0 0 0 0 0 0 0 0 0 0 0 0 0 0 0 0 0 0 0 0 0 0 0
0 0 0 0 0 0 0 0 0 -0 -0 -0 -0 0 0 0 0 0 0 0 0 0 0 0 0 0 0 0 0 0 0 0 0 0 0 0 0 0 0 0 0 0 0
0 0 0 0 0 0 0 0 -0 -0 -0 -0 -0 -0 0 0 0 0 0 0 0 0 0 0 0 0 0 0 0 0 0 0 0 0 0 0 0 0 0 0 0 0 0
0 0 0 0 0 -0 -0 -0 -0 -0 -0 -0 -0 -0 0 0 0 0 0 0 0 0 0 0 0 0 0 0 0 0 0 0 0 0 0 0 0 0 0 0 0 0 0
0 0 0 -0 -0 -0 -0 -0 -0 -0 0 0 0 0 0 0 0 0 0 0 0 0 0 0 0 0 0 0 0 0 0 0 0 0 0 0 0 0 0 0 0 0 0
-0 -0 0 0 -0 0 -0 -0 -0 -0 -0 0 0 0 0 0 0 0 0 0 0 0 0 0 0 0 0 0 0 0 0 0 0 0 0 0 0 0 0 0 0 0 0
0 0 0 0 0 -0 -0 -0 -0 -0 -0 -0 -0 0 0 0 0 0 0 0 0 0 0 0 0 0 0 0 0 0 0 0 0 0 0 0 0 0 0 0 0 0 0
0 0 0 0 0 0 0 0 0 0 0 0 -0 -0 0 0 0 0 0 0 0 0 0 0 0 0 0 0 0 0 0 0 0 0 0 0 0 0 0 0 0 0 0
0 0 0 0 0 0 0 0 0 0 0 0 0 0 0 -0 -0 -0 0 0 0 0 0 0 0 0 0 0 0 0 0 0 0 0 0 0 0 0 0 0 0 0 0
-0 0 0 0 0 0 0 0 0 0 0 0 0 0 0 0 0 -0 -0 0 0 0 0 0 0 0 0 0 0 0 0 0 0 0 0 0 0 0 0 0 0 0 0
-0 0 0 0 0 0 0 0 0 0 0 0 0 0 0 0 -0 0 -0 0 0 0 0 0 0 0 0 0 0 0 0 0 0 0 0 0 0 0 0 0 0 0 0
0 -0 -0 0 0 0 0 0 0 0 0 0 0 0 0 0 -0 -0 -0 0 0 0 -0 0 0 0 0 0 0 0 0 0 0 0 0 0 0 0 0 0 0 0 0
-0 0 0 0 -0 -0 0 0 0 0 0 0 0 0 -0 -0 0 0 0 -0 0 0 0 0 0 0 0 0 0 0 0 0 0 0 0 0 0 0 0 0 0 0 0
0 0 -0 -0 -0 -0 -0 -0 0 0 0 0 0 0 0 0 0 0 0 0 0 0 0 0 0 0 0 -0 0 0 0 0 0 0 0 0 0 0 0 0 0 0 0
0 0 -0 -0 -0 -0 -0 -0 0 0 0 0 0 0 0 0 0 0 0 -0 -0 -0 0 0 0 0 0 -0 -0 -0 0 0 0 0 0 0 0 0 0 0 0 0 0
-0 -0 -0 -0 -0 -0 -0 0 0 0 0 0 0 0 0 0 0 0 -0 0 -0 0 0 0 0 0 0 0 -0 -0 0 0 0 0 0 0 0 0 0 0 0 0 0
0 0 0 0 0 0 0 -0 0 0 0 0 0 0 0 0 0 0 0 -0 -0 0 -0 -0 0 0 0 0 0 0 0 0 0 0 0 0 0 0 0 0 0 0 0
0 0 0 0 0 0 0 0 0 0 0 0 0 0 0 0 0 0 0 0 0 -0 -0 -0 -0 0 0 0 0 0 0 0 0 0 0 0 0 0 0 0 0 0 0
0 0 0 0 0 0 0 0 0 0 0 0 0 0 0 0 0 0 0 0 0 0 0 -0 -0 -0 -0 -0 -0 -0 0 0 0 0 0 0 0 0 0 0 0 0 0
0 0 0 0 0 0 0 0 0 0 0 0 0 0 0 0 0 0 0 0 0 0 0 0 0 -0 -0 -0 -0 -0 -0 0 0 0 0 0 0 0 0 0 0 0 0
0 0 0 0 0 0 0 0 0 0 0 0 0 0 0 0 0 0 0 0 0 0 0 0 0 -0 -0 -0 -0 0 0 0 0 0 0 0 0 0 0 0 0 0 0
0 0 0 0 0 0 0 0 0 0 0 0 0 0 0 0 0 0 0 0 0 0 0 0 0 0 0 -0 0 0 0 0 0 0 0 0 0 0 0 0 0 0 0
0 0 0 0 0 0 0 0 0 0 0 0 0 0 0 0 0 0 0 0 0 0 0 0 0 0 0 0 0 0 0 0 -0 0 0 0 0 0 0 0 0 0 0
Wind_Speed_500mb
31 34 26 22 18 15 16 24 36 41 51 64 80 90 102 104 107 106 103 101 98 96 93 90 90 88 86 80 73 70 64 58 52 44 38 34 32 30 28 28 30 30 30
21 37 42 44 42 37 29 20 21 31 40 51 62 73 81 93 98 104 109 109 106 103 98 97 96 94 92 88 84 81 75 69 61 52 36 24 30 36 36 36 35 35 33
34 40 44 48 50 55 55 46 34 27 33 39 50 60 72 80 78 89 105 109 109 108 103 101 99 98 98 97 93 90 85 79 72 68 37 18 18 29 41 42 41 40 39
42 42 42 46 51 53 49 47 43 36 25 26 38 49 57 65 71 79 83 93 105 110 107 106 105 103 102 100 97 92 89 85 81 72 71 55 27 20 18 45 49 49 48
46 48 49 51 50 52 51 46 42 39 34 25 25 36 45 51 53 61 73 74 80 93 110 108 109 109 106 104 101 98 95 92 86 80 79 74 61 47 28 20 42 58 58
42 44 46 51 56 53 48 48 47 48 41 32 23 24 33 42 49 60 68 74 73 74 83 106 114 112 111 109 104 100 98 95 94 88 83 79 72 67 55 41 32 40 52
42 55 57 61 63 59 56 54 51 48 46 44 32 26 23 28 41 46 58 63 70 74 72 84 109 119 116 112 109 107 104 102 100 97 91 85 81 73 61 56 51 43 48
49 52 55 53 53 55 60 60 52 49 49 43 39 36 34 30 31 36 45 53 59 62 66 73 83 105 118 117 114 113 109 106 106 104 98 94 87 79 73 66 62 52 46
37 37 40 49 56 55 54 55 54 53 48 44 48 46 41 37 39 38 42 44 50 57 62 65 69 79 103 119 119 119 115 114 112 109 104 101 93 86 82 73 67 63 50
33 37 40 45 49 55 56 54 54 53 51 49 47 46 48 48 45 46 47 48 45 48 55 60 66 72 80 97 117 123 121 119 117 112 110 106 101 96 90 84 78 74 68
32 35 40 43 46 46 49 51 56 59 58 57 55 54 52 50 50 47 46 48 51 48 48 54 62 68 75 84 98 117 122 123 120 120 117 112 108 104 100 94 88 84 78
26 29 31 35 37 41 46 49 49 53 57 57 55 53 55 57 56 57 57 55 53 56 57 51 58 65 73 79 90 99 117 126 126 126 121 119 115 112 108 103 99 93 86
17 20 22 26 31 41 43 45 49 51 53 56 57 58 56 53 56 58 57 58 59 56 59 61 58 62 71 79 88 94 101 116 124 127 128 124 122 118 118 113 108 101 95
15 20 22 27 29 34 41 46 46 50 54 58 61 61 64 64 59 58 61 59 59 62 58 55 63 62 67 75 80 90 101 108 114 121 131 129 127 125 124 120 115 108 103
12 16 20 28 35 40 44 49 49 50 54 57 61 65 69 68 68 70 68 65 64 63 62 62 51 58 68 74 74 83 94 105 112 113 122 131 130 131 126 126 122 116 109
17 23 28 34 38 39 40 44 50 54 57 60 62 66 71 74 76 78 74 78 76 74 70 67 64 59 57 67 67 76 90 89 106 114 118 123 128 130 127 127 120 120 113
29 31 30 32 34 43 46 49 52 52 55 63 70 73 76 79 81 84 89 86 85 82 83 79 75 72 63 59 63 69 83 84 94 107 114 119 124 124 126 125 120 121 113
32 36 37 37 38 47 50 55 62 65 67 69 70 74 83 88 91 94 93 96 98 94 94 92 90 85 84 65 59 66 70 82 89 95 103 115 124 125 121 123 125 127 119
41 42 55 63 67 66 64 73 81 80 79 81 80 78 80 85 90 98 104 103 104 108 104 102 99 94 91 82 72 60 72 82 90 90 95 107 119 121 115 113 124 127 123
54 55 63 73 80 82 84 83 83 84 87 90 93 95 97 96 95 95 99 109 116 117 118 117 108 105 101 87 82 70 70 81 88 92 94 98 109 110 108 99 115 124 127
67 64 65 80 84 89 92 96 94 86 72 76 96 107 110 113 118 119 114 111 112 121 128 124 122 114 105 97 87 80 73 83 86 93 97 104 102 96 92 88 104 110 116
61 67 82 88 91 91 90 98 104 94 81 78 85 92 106 115 122 121 127 125 120 116 121 129 127 121 114 102 92 83 82 77 87 89 97 100 96 92 92 86 96 96 93
64 75 83 91 93 96 93 96 111 105 111 112 114 105 98 99 104 105 109 105 106 104 114 115 107 110 98 104 91 84 76 75 81 86 97 100 86 71 78 87 102 89 100
63 70 81 91 102 103 104 99 104 108 112 114 111 99 91 90 87 86 85 85 87 87 85 90 92 87 79 88 85 81 72 66 70 81 94 90 82 69 72 82 98 92 107
62 64 79 93 105 103 101 98 99 96 96 94 90 85 82 80 81 78 77 78 81 77 81 83 79 80 77 75 62 65 64 54 61 71 85 77 67 56 80 86 97 95 87
67 77 83 89 93 91 94 95 88 81 83 88 84 80 82 82 80 81 85 76 75 78 83 88 90 98 93 80 74 64 59 47 42 72 85 80 75 69 86 85 87 92 91
Wind_Direction_500mb
320 340 353 353 342 322 295 281 276 271 261 254 247 244 243 243 242 241 242 240 238 236 235 234 233 231 231 231 230 230 228 226 226 226 228 235 238 238 238 237 232 227 225
16 54 50 49 42 33 16 350 312 289 276 267 259 253 250 247 245 243 242 241 239 237 235 235 233 232 231 228 228 229 227 224 224 221 221 227 237 237 236 233 228 227 223
72 48 43 43 45 40 30 20 6 334 299 284 270 259 251 250 251 248 245 243 241 241 239 238 236 234 233 231 230 228 226 226 224 221 210 201 218 220 230 226 224 220 220
47 40 44 47 40 35 30 20 13 2 338 296 277 272 268 260 259 258 257 254 247 244 241 239 239 236 235 233 233 232 230 227 226 221 221 224 217 188 205 225 225 223 224
46 39 36 40 41 35 29 28 22 15 8 357 312 284 274 267 264 262 264 265 265 253 244 241 240 238 237 236 235 233 230 231 230 227 226 225 228 228 217 211 226 229 228
46 42 39 40 38 37 35 31 27 26 26 19 1 327 308 293 275 276 274 273 270 264 256 247 242 241 239 238 238 236 235 234 232 230 232 234 229 229 225 224 223 231 233
42 33 32 30 28 29 28 28 28 24 19 14 13 359 340 318 299 290 282 278 276 274 268 256 245 242 240 240 239 237 236 234 234 234 233 234 234 238 239 234 234 224 230
34 28 25 26 22 21 19 18 19 19 17 14 9 359 346 330 308 300 293 288 286 282 276 268 261 250 243 241 240 239 237 235 235 234 233 234 235 236 238 237 232 228 230
25 19 14 12 11 10 8 6 5 9 11 10 6 4 356 339 321 305 291 288 288 286 283 275 268 262 252 245 243 241 239 237 235 234 234 235 234 235 236 236 235 233 230
17 12 9 7 4 1 1 358 359 358 0 3 3 2 354 348 338 323 311 297 289 287 284 280 273 265 259 253 246 244 242 240 238 236 235 235 235 234 234 233 233 232 233
14 10 5 359 355 353 352 353 351 350 350 349 350 353 354 351 350 346 335 313 297 288 280 279 275 269 264 258 254 247 245 243 240 238 236 236 235 235 234 233 232 231 231
3 2 4 358 356 354 351 350 348 348 350 350 345 341 341 344 345 343 342 340 324 302 289 279 273 272 266 262 259 255 249 245 242 240 238 237 235 235 235 234 233 231 231
3 357 360 359 354 350 346 346 346 346 345 344 345 344 342 334 331 337 337 334 333 331 309 290 281 274 269 265 261 259 256 253 248 245 243 239 237 236 235 234 233 231 229
359 344 347 347 348 348 344 343 344 343 340 339 338 339 339 340 340 334 331 330 328 324 327 313 292 282 277 269 264 262 260 256 253 249 247 245 242 240 238 236 235 232 231
307 329 333 336 336 333 333 330 334 336 335 335 334 333 332 331 331 332 330 329 325 322 317 316 313 291 280 276 270 266 261 259 257 253 250 247 245 243 242 240 237 234 231
314 321 326 325 326 324 318 318 320 324 328 327 327 326 325 325 326 328 328 328 328 325 320 314 310 303 291 278 276 277 269 262 258 255 253 252 248 246 244 244 243 242 237
327 324 309 301 298 314 310 312 312 311 312 313 315 317 318 318 319 320 320 322 323 323 322 319 313 303 299 298 281 270 269 265 261 258 255 253 250 248 245 243 243 242 240
299 313 315 310 302 302 302 308 310 306 305 303 302 304 308 310 312 312 313 315 317 317 316 316 313 307 299 297 295 272 266 264 261 259 257 255 252 249 244 240 240 238 236
286 305 318 318 315 312 312 314 312 310 306 304 302 301 299 298 300 303 306 308 309 309 310 308 307 305 298 294 291 286 268 259 258 257 257 251 251 250 246 242 237 235 234
282 300 307 311 311 312 313 312 309 308 307 307 304 303 301 298 294 293 294 298 301 300 301 301 300 299 297 292 286 282 266 261 257 254 253 253 253 249 248 234 235 233 233
283 292 305 309 307 309 310 308 309 305 301 297 300 299 298 297 297 295 292 289 288 290 293 293 294 294 293 291 285 277 264 259 254 249 252 251 247 240 239 225 237 241 235
288 295 304 304 304 307 310 308 307 308 302 297 293 290 292 293 293 293 292 290 288 285 282 287 288 288 289 289 282 278 273 260 248 246 250 253 251 247 242 223 237 234 221
298 302 303 304 306 309 309 306 305 303 302 298 295 293 291 288 289 289 290 288 288 286 282 280 282 282 282 285 282 276 272 269 246 249 248 252 254 252 241 227 222 218 210
304 305 305 307 307 308 308 307 306 306 304 299 296 295 293 291 287 285 283 282 281 280 276 276 275 278 275 277 276 275 272 265 254 242 246 246 244 246 235 215 212 203 208
305 306 307 309 309 312 311 312 313 312 308 304 300 299 297 294 291 286 281 278 275 272 273 271 271 270 273 270 273 274 275 266 262 239 234 226 227 223 213 207 203 200 205
310 312 312 313 314 315 314 315 317 315 311 307 302 299 297 295 292 289 288 285 278 275 271 269 267 271 269 268 267 266 268 259 251 229 222 218 224 214 203 197 195 197 205
Wind_Speed_850mb
31 34 26 22 18 15 16 24 36 41 51 64 80 90 102 104 107 106 103 101 98 96 93 90 90 88 86 80 73 70 64 58 52 44 38 34 32 30 28 28 30 30 30
21 37 42 44 42 37 29 20 21 31 40 51 62 73 81 93 98 104 109 109 106 103 98 97 96 94 92 88 84 81 75 69 61 52 36 24 30 36 36 36 35 35 33
34 40 44 48 50 55 55 46 34 27 33 39 50 60 72 80 78 89 105 109 109 108 103 101 99 98 98 97 93 90 85 79 72 68 37 18 18 29 41 42 41 40 39
42 42 42 46 51 53 49 47 43 36 25 26 38 49 57 65 71 79 83 93 105 110 107 106 105 103 102 100 97 92 89 85 81 72 71 55 27 20 18 45 49 49 48
46 48 49 51 50 52 51 46 42 39 34 25 25 36 45 51 53 61 73 74 80 93 110 108 109 109 106 104 101 98 95 92 86 80 79 74 61 47 28 20 42 58 58
42 44 46 51 56 53 48 48 47 48 41 32 23 24 33 42 49 60 68 74 73 74 83 106 114 112 111 109 104 100 98 95 94 88 83 79 72 67 55 41 32 40 52
42 55 57 61 63 59 56 54 51 48 46 44 32 26 23 28 41 46 58 63 70 74 72 84 109 119 116 112 109 107 104 102 100 97 91 85 81 73 61 56 51 43 48
49 52 55 53 53 55 60 60 52 49 49 43 39 36 34 30 31 36 45 53 59 62 66 73 83 105 118 117 114 113 109 106 106 104 98 94 87 79 73 66 62 52 46
37 37 40 49 56 55 54 55 54 53 48 44 48 46 41 37 39 38 42 44 50 57 62 65 69 79 103 119 119 119 115 114 112 109 104 101 93 86 82 73 67 63 50
33 37 40 45 49 55 56 54 54 53 51 49 47 46 48 48 45 46 47 48 45 48 55 60 66 72 80 97 117 123 121 119 117 112 110 106 101 96 90 84 78 74 68
32 35 40 43 46 46 49 51 56 59 58 57 55 54 52 50 50 47 46 48 51 48 48 54 62 68 75 84 98 117 122 123 120 120 117 112 108 104 100 94 88 84 78
26 29 31 35 37 41 46 49 49 53 57 57 55 53 55 57 56 57 57 55 53 56 57 51 58 65 73 79 90 99 117 126 126 126 121 119 115 112 108 103 99 93 86
17 20 22 26 31 41 43 45 49 51 53 56 57 58 56 53 56 58 57 58 59 56 59 61 58 62 71 79 88 94 101 116 124 127 128 124 122 118 118 113 108 101 95
15 20 22 27 29 34 41 46 46 50 54 58 61 61 64 64 59 58 61 59 59 62 58 55 63 62 67 75 80 90 101 108 114 121 131 129 127 125 124 120 115 108 103
12 16 20 28 35 40 44 49 49 50 54 57 61 65 69 68 68 70 68 65 64 63 62 62 51 58 68 74 74 83 94 105 112 113 122 131 130 131 126 126 122 116 109
17 23 28 34 38 39 40 44 50 54 57 60 62 66 71 74 76 78 74 78 76 74 70 67 64 59 57 67 67 76 90 89 106 114 118 123 128 130 127 127 120 120 113
29 31 30 32 34 43 46 49 52 52 55 63 70 73 76 79 81 84 89 86 85 82 83 79 75 72 63 59 63 69 83 84 94 107 114 119 124 124 126 125 120 121 113
32 36 37 37 38 47 50 55 62 65 67 69 70 74 83 88 91 94 93 96 98 94 94 92 90 85 84 65 59 66 70 82 89 95 103 115 124 125 121 123 125 127 119
41 42 55 63 67 66 64 73 81 80 79 81 80 78 80 85 90 98 104 103 104 108 104 102 99 94 91 82 72 60 72 82 90 90 95 107 119 121 115 113 124 127 123
54 55 63 73 80 82 84 83 83 84 87 90 93 95 97 96 95 95 99 109 116 117 118 117 108 105 101 87 82 70 70 81 88 92 94 98 109 110 108 99 115 124 127
67 64 65 80 84 89 92 96 94 86 72 76 96 107 110 113 118 119 114 111 112 121 128 124 122 114 105 97 87 80 73 83 86 93 97 104 102 96 92 88 104 110 116
61 67 82 88 91 91 90 98 104 94 81 78 85 92 106 115 122 121 127 125 120 116 121 129 127 121 114 102 92 83 82 77 87 89 97 100 96 92 92 86 96 96 93
64 75 83 91 93 96 93 96 111 105 111 112 114 105 98 99 104 105 109 105 106 104 114 115 107 110 98 104 91 84 76 75 81 86 97 100 86 71 78 87 102 89 100
63 70 81 91 102 103 104 99 104 108 112 114 111 99 91 90 87 86 85 85 87 87 85 90 92 87 79 88 85 81 72 66 70 81 94 90 82 69 72 82 98 92 107
62 64 79 93 105 103 101 98 99 96 96 94 90 85 82 80 81 78 77 78 81 77 81 83 79 80 77 75 62 65 64 54 61 71 85 77 67 56 80 86 97 95 87
67 77 83 89 93 91 94 95 88 81 83 88 84 80 82 82 80 81 85 76 75 78 83 88 90 98 93 80 74 64 59 47 42 72 85 80 75 69 86 85 87 92 91
Wind_Direction_850mb
320 340 353 353 342 322 295 281 276 271 261 254 247 244 243 243 242 241 242 240 238 236 235 234 233 231 231 231 230 230 228 226 226 226 228 235 238 238 238 237 232 227 225
16 54 50 49 42 33 16 350 312 289 276 267 259 253 250 247 245 243 242 241 239 237 235 235 233 232 231 228 228 229 227 224 224 221 221 227 237 237 236 233 228 227 223
72 48 43 43 45 40 30 20 6 334 299 284 270 259 251 250 251 248 245 243 241 241 239 238 236 234 233 231 230 228 226 226 224 221 210 201 218 220 230 226 224 220 220
47 40 44 47 40 35 30 20 13 2 338 296 277 272 268 260 259 258 257 254 247 244 241 239 239 236 235 233 233 232 230 227 226 221 221 224 217 188 205 225 225 223 224
46 39 36 40 41 35 29 28 22 15 8 357 312 284 274 267 264 262 264 265 265 253 244 241 240 238 237 236 235 233 230 231 230 227 226 225 228 228 217 211 226 229 228
46 42 39 40 38 37 35 31 27 26 26 19 1 327 308 293 275 276 274 273 270 264 256 247 242 241 239 238 238 236 235 234 232 230 232 234 229 229 225 224 223 231 233
42 33 32 30 28 29 28 28 28 24 19 14 13 359 340 318 299 290 282 278 276 274 268 256 245 242 240 240 239 237 236 234 234 234 233 234 234 238 239 234 234 224 230
34 28 25 26 22 21 19 18 19 19 17 14 9 359 346 330 308 300 293 288 286 282 276 268 261 250 243 241 240 239 237 235 235 234 233 234 235 236 238 237 232 228 230
25 19 14 12 11 10 8 6 5 9 11 10 6 4 356 339 321 305 291 288 288 286 283 275 268 262 252 245 243 241 239 237 235 234 234 235 234 235 236 236 235 233 230
17 12 9 7 4 1 1 358 359 358 0 3 3 2 354 348 338 323 311 297 289 287 284 280 273 265 259 253 246 244 242 240 238 236 235 235 235 234 234 233 233 232 233
14 10 5 359 355 353 352 353 351 350 350 349 350 353 354 351 350 346 335 313 297 288 280 279 275 269 264 258 254 247 245 243 240 238 236 236 235 235 234 233 232 231 231
3 2 4 358 356 354 351 350 348 348 350 350 345 341 341 344 345 343 342 340 324 302 289 279 273 272 266 262 259 255 249 245 242 240 238 237 235 235 235 234 233 231 231
3 357 360 359 354 350 346 346 346 346 345 344 345 344 342 334 331 337 337 334 333 331 309 290 281 274 269 265 261 259 256 253 248 245 243 239 237 236 235 234 233 231 229
359 344 347 347 348 348 344 343 344 343 340 339 338 339 339 340 340 334 331 330 328 324 327 313 292 282 277 269 264 262 260 256 253 249 247 245 242 240 238 236 235 232 231
307 329 333 336 336 333 333 330 334 336 335 335 334 333 332 331 331 332 330 329 325 322 317 316 313 291 280 276 270 266 261 259 257 253 250 247 245 243 242 240 237 234 231
314 321 326 325 326 324 318 318 320 324 328 327 327 326 325 325 326 328 328 328 328 325 320 314 310 303 291 278 276 277 269 262 258 255 253 252 248 246 244 244 243 242 237
327 324 309 301 298 314 310 312 312 311 312 313 315 317 318 318 319 320 320 322 323 323 322 319 313 303 299 298 281 270 269 265 261 258 255 253 250 248 245 243 243 242 240
299 313 315 310 302 302 302 308 310 306 305 303 302 304 308 310 312 312 313 315 317 317 316 316 313 307 299 297 295 272 266 264 261 259 257 255 252 249 244 240 240 238 236
286 305 318 318 315 312 312 314 312 310 306 304 302 301 299 298 300 303 306 308 309 309 310 308 307 305 298 294 291 286 268 259 258 257 257 251 251 250 246 242 237 235 234
282 300 307 311 311 312 313 312 309 308 307 307 304 303 301 298 294 293 294 298 301 300 301 301 300 299 297 292 286 282 266 261 257 254 253 253 253 249 248 234 235 233 233
283 292 305 309 307 309 310 308 309 305 301 297 300 299 298 297 297 295 292 289 288 290 293 293 294 294 293 291 285 277 264 259 254 249 252 251 247 240 239 225 237 241 235
288 295 304 304 304 307 310 308 307 308 302 297 293 290 292 293 293 293 292 290 288 285 282 287 288 288 289 289 282 278 273 260 248 246 250 253 251 247 242 223 237 234 221
298 302 303 304 306 309 309 306 305 303 302 298 295 293 291 288 289 289 290 288 288 286 282 280 282 282 282 285 282 276 272 269 246 249 248 252 254 252 241 227 222 218 210
304 305 305 307 307 308 308 307 306 306 304 299 296 295 293 291 287 285 283 282 281 280 276 276 275 278 275 277 276 275 272 265 254 242 246 246 244 246 235 215 212 203 208
305 306 307 309 309 312 311 312 313 312 308 304 300 299 297 294 291 286 281 278 275 272 273 271 271 270 273 270 273 274 275 266 262 239 234 226 227 223 213 207 203 200 205
310 312 312 313 314 315 314 315 317 315 311 307 302 299 297 295 292 289 288 285 278 275 271 269 267 271 269 268 267 266 268 259 251 229 222 218 224 214 203 197 195 197 205